• Join FlightAware (Why Join?)
  • Login
  • US Flag 
09:04AM EST


 

Airport Tracker/Info


-or-


 

Live Flight TrackerFlight Track Log ✈ ASQ5817 ✈ 06-Nov-2013 ✈ KRDU - KCLE

Flight Track Log - Related Links

Times and Time Zones

All times are in EST time to prevent confusion due to time zone crossing. See the ASQ5817 flight status page for this flight to view local times or setup timezone preferences in your user account.

Time Position Orientation Groundspeed Altitude Reporting Facility
EST Latitude Longitude Course Direction KTS MPH feet Rate Location/Type
02:59PM 35.8864 -78.7711 327° Northwest 156 180 1,500  Level Washington Center
03:01PM 35.9606 -78.7331 23° Northeast 210 242 3,900 2,100 Climbing Washington Center
03:02PM 36.1751 -78.9399 292° West  Level Estimated
03:02PM 36.0222 -78.7661 337° Northwest 227 261 6,700  Level Washington Center
03:03PM 36.2742 -78.9910 321° Northwest  Level Estimated
03:03PM 36.0428 -78.8492 287° West 211 243 9,000  Level Washington Center
03:04PM 36.3733 -79.0422 321° Northwest  Level Estimated
03:04PM 36.0422 -78.9469 270° West 229 264 10,500  Level Washington Center
03:05PM 36.4724 -79.0936 327° Northwest  Level Estimated
03:05PM 36.0411 -79.0625 269° West 291 335 11,500  Level Washington Center
03:06PM 36.0672 -79.1689 287° West 330 380 13,400 1,860 Climbing Washington Center
03:07PM 36.1478 -79.2628 317° Northwest 344 396 15,200 1,440 Climbing Washington Center
03:08PM 36.2122 -79.3353 318° Northwest 350 403 16,400 1,320 Climbing Washington Center
03:09PM 36.2969 -79.4319 317° Northwest 360 414 17,900 1,080 Climbing Washington Center
03:10PM 36.3656 -79.5050 319° Northwest 360 414 18,600 840 Climbing Washington Center
03:11PM 36.4483 -79.5892 321° Northwest 370 426 19,600 1,020 Climbing Washington Center
03:12PM 36.5267 -79.6786 317° Northwest 381 438 20,700 1,440 Climbing Washington Center
03:13PM 36.6258 -79.7667 325° Northwest 387 445 22,500 1,560 Climbing Washington Center
03:14PM 36.7197 -79.8233 334° Northwest 387 445 23,900 1,440 Climbing Washington Center
03:15PM 36.8139 -79.8778 335° Northwest 376 433 25,400 1,320 Climbing Washington Center
03:16PM 36.9119 -79.9353 335° Northwest 376 433 26,600 960 Climbing Washington Center
03:17PM 36.9997 -79.9869 335° Northwest 376 433 27,400 780 Climbing Washington Center
03:18PM 37.0997 -80.0447 335° Northwest 382 440 28,200 840 Climbing Washington Center
03:19PM 37.1975 -80.1078 333° Northwest 387 445 29,100 840 Climbing Washington Center
03:20PM 37.3017 -80.1689 335° Northwest 399 459 29,900 780 Climbing Washington Center
03:21PM 37.4036 -80.2272 336° Northwest 399 459 30,800 1,020 Climbing Washington Center
03:22PM 37.5178 -80.2972 334° Northwest 405 466 32,000 600 Climbing Washington Center
03:23PM 37.6217 -80.3586 335° Northwest 410 472 32,000  Level Washington Center
03:24PM 37.7317 -80.4261 334° Northwest 416 479 32,000  Level Washington Center
03:26PM 37.9481 -80.5475 336° Northwest 433 498 32,000  Level Indianapolis Center
03:27PM 38.0544 -80.6125 334° Northwest 426 490 32,000  Level Indianapolis Center
03:28PM 38.1619 -80.6775 335° Northwest 426 490 32,000  Level Indianapolis Center
03:29PM 38.2911 -80.7564 334° Northwest 428 493 32,000  Level Indianapolis Center
03:30PM 38.3981 -80.8228 334° Northwest 426 490 32,000  Level Indianapolis Center
03:31PM 38.5044 -80.8881 334° Northwest 427 491 32,000  Level Indianapolis Center
03:32PM 38.6111 -80.9533 334° Northwest 426 490 32,000  Level Indianapolis Center
03:33PM 38.7167 -81.0194 334° Northwest 425 489 32,000  Level Indianapolis Center
03:34PM 38.8225 -81.0836 335° Northwest 424 488 32,000  Level Indianapolis Center
03:35PM 38.9511 -81.1642 334° Northwest 433 498 32,000  Level Indianapolis Center
03:36PM 39.0581 -81.2306 334° Northwest 431 496 32,000  Level Indianapolis Center
03:37PM 39.1669 -81.2994 334° Northwest 436 502 32,000  Level Indianapolis Center
03:38PM 39.2756 -81.3667 334° Northwest 435 501 32,000  Level Indianapolis Center
03:39PM 39.3850 -81.4364 334° Northwest 438 504 32,000  Level Indianapolis Center
03:40PM 39.5164 -81.5197 334° Northwest 438 504 32,000 -540 Level Indianapolis Center
03:41PM 39.6253 -81.5889 334° Northwest 436 502 30,900 -1,500 Descending Indianapolis Center
03:42PM 39.7292 -81.6553 334° Northwest 431 496 29,000 -1,980 Descending Indianapolis Center
03:43PM 39.8431 -81.7281 334° Northwest 439 505 26,900 -1,980 Descending Indianapolis Center
03:44PM 39.9478 -81.7958 334° Northwest 439 505 25,000 -2,100 Descending Indianapolis Center
03:45PM 40.0742 -81.8767 334° Northwest 426 490 22,600 -2,160 Descending Indianapolis Center
03:46PM 40.1931 -81.8911 355° North 440 506 20,600 -1,980 Descending Indianapolis Center
03:47PM 40.3189 -81.8503 14° North 459 528 18,600 -1,920 Descending Indianapolis Center
03:48PM 40.4433 -81.8114 13° North 457 526 16,700 -1,860 Descending Indianapolis Center
03:50PM 40.5653 -81.7731 13° North 448 516 14,800 -1,860 Descending Indianapolis Center
03:50PM 40.6625 -81.7408 14° North 434 499 13,500 -1,980 Descending Cleveland Center
03:51PM 40.7731 -81.7050 14° North 411 473 11,400 -2,100 Descending Cleveland Center
03:52PM 40.8283 -81.6900 12° North 404 465 10,400 -1,260 Descending Cleveland Center
03:52PM 40.8828 -81.6703 15° North 405 466 10,100 -600 Descending Cleveland Center
03:52PM 40.8997 -81.6683 North 398 458 10,000  Descending Cleveland Center
03:53PM 40.9903 -81.6536 North 390 449 10,100  Climbing Cleveland Center
03:53PM 41.0053 -81.6628 335° Northwest 369 425 10,000  Descending Cleveland Center
03:54PM 41.0878 -81.6897 346° North 361 415 10,100  Climbing Cleveland Center
03:54PM 41.1028 -81.6978 338° Northwest 358 412 10,000 -120 Descending Cleveland Center
03:55PM 41.1864 -81.7244 347° North 361 415 10,000  Level Cleveland Center
03:55PM 41.2025 -81.7333 337° Northwest 338 389 10,000 -1,020 Level Cleveland Center
03:56PM 41.2683 -81.7469 351° North 296 341 9,000 -1,380 Descending Cleveland Center
03:57PM 41.2886 -81.7556 342° North 277 319 8,500 -1,800 Descending Cleveland Center
03:57PM 41.3544 -81.7244 20° North 333 383 7,300 -1,260 Descending Cleveland Center
03:57PM 41.3489 -81.7261 193° South 311 358 7,400 -420 Climbing Cleveland Center
03:59PM 41.4192 -81.6600 35° Northeast 303 349 6,900 -780 Descending Cleveland Center
03:59PM 41.4694 -81.5922 45° Northeast 249 287 5,900 -1,020 Descending Cleveland Center
04:00PM 41.4672 -81.5922 180° South 256 295 5,900 -1,200 Level Cleveland Center
04:01PM 41.5250 -81.5814 North 194 223 4,600 -1,380 Descending Cleveland Center
04:01PM 41.5286 -81.5817 357° North 223 257 4,500 -720 Descending Cleveland Center
04:01PM 41.5439 -81.6264 295° West 142 163 4,000 -540 Descending Cleveland Center
04:02PM 41.5422 -81.6325 250° West 179 206 4,000  Level Cleveland Center
04:02PM 41.5253 -81.6708 239° Southwest 140 161 4,000 -120 Level Cleveland Center
04:03PM 41.5203 -81.6778 226° Southwest 156 180 3,900 -600 Descending Cleveland Center
04:03PM 41.5006 -81.7117 232° Southwest 139 160 3,400 -720 Descending Cleveland Center
04:04PM 41.4961 -81.7181 227° Southwest 143 165 3,200 -720 Descending Cleveland Center
04:04PM 41.4781 -81.7500 233° Southwest 132 152 2,700 -600 Descending Cleveland Center
04:05PM 41.4725 -81.7525 199° South 129 148 2,600 -600 Descending Cleveland Center
04:06PM 41.4586 -81.7803 236° Southwest 103 119 2,100 -600 Descending Cleveland Center
04:06PM 41.4547 -81.7833 210° Southwest 109 125 2,000 -600 Descending Cleveland Center
04:07PM 41.4367 -81.8131 231° Southwest 116 133 1,500 -720 Descending Cleveland Center
04:07PM 41.4311 -81.8208 226° Southwest 110 127 1,300 -540 Descending Cleveland Center
04:08PM 41.4125 -81.8503 230° Southwest 118 136 800 -540 Descending Cleveland Center